Weather History for BGGH - January, 2013

Change the Weather History Date:

Tuesday, January 1, 2013

  Actual Average Record
Temperature  
Mean Temperature 16 °F -  
Max Temperature 21 °F 20 °F 44 °F (2011)
Min Temperature 12 °F 14 °F 3 °F (2008)
Degree Days  
Heating Degree Days 48    
Moisture  
Dew Point 4 °F    
Average Humidity 52    
Maximum Humidity 68    
Minimum Humidity 31    
Precipitation  
Precipitation 0.00 in - - ()
Sea Level Pressure  
Sea Level Pressure 29.16 in    
Wind  
Wind Speed 12 mph ()    
Max Wind Speed 20 mph    
Max Gust Speed -    
Visibility 6.2 miles    
Events      
Averages and records for this station are not official NWS values.
T = Trace of Precipitation, MM = Missing Value Source: Averaged Metar Reports

Daily Weather History Graph

Daily Weather History Graph

Search for Another Location

Airport or City:

Trip Planner

Search our weather history database for the weather conditions in past years. The results will help you decide how hot, cold, wet, or windy it might be!

Date:

Astronomy

Jan. 01, 2013 Rise Set
Actual Time 10:18 AM WGT 2:42 PM WGT
Civil Twilight 9:02 AM WGT 3:58 PM WGT
Nautical Twilight 7:54 AM WGT 5:07 PM WGT
Astronomical Twilight 6:54 AM WGT 6:06 PM WGT
Moon 9:08 PM WGT (1/1) 10:35 AM WGT (1/1)
Length of Visible Light 6h 56m
Length of Day
4h 23m
Waning Gibbous, 84% of the Moon is Illuminated
Jan 1
Waning Gibbous
Jan 5
Last Quarter
Jan 11
New
Jan 18
First Quarter
Jan 27
Full

Hourly Weather History & Observations

Time (WGT) Temp. Windchill Dew Point Humidity Pressure Visibility Wind Dir Wind Speed Gust Speed Precip Events Conditions
12:00 AM 18 °F - 3 °F 36% 29.35 in 31 mi NE 11.5 mph - -  
12:20 AM 15.8 °F 2.1 °F 1.4 °F 53% 29.33 in 6.2 mi ENE 12.7 mph - N/A   Mostly Cloudy
12:50 AM 15.8 °F 2.7 °F 1.4 °F 53% 29.30 in 6.2 mi ENE 11.5 mph - N/A   Mostly Cloudy
1:20 AM 15.8 °F 0.9 °F 3.2 °F 58% 29.30 in 6.2 mi ENE 15.0 mph - N/A   Scattered Clouds
1:50 AM 17.6 °F 3.7 °F 3.2 °F 53% 29.30 in 6.2 mi ENE 13.8 mph - N/A   Mostly Cloudy
2:20 AM 19.4 °F 5.0 °F 5.0 °F 54% 29.30 in 6.2 mi ENE 16.1 mph - N/A   Scattered Clouds
2:50 AM 17.6 °F 3.2 °F 5.0 °F 58% 29.27 in 6.2 mi ENE 15.0 mph - N/A   Mostly Cloudy
3:00 AM 19 °F - 4 °F 38% 29.27 in 31 mi NE 11.5 mph - -  
3:20 AM 12.2 °F -3.7 °F 3.2 °F 67% 29.27 in 6.2 mi ENE 15.0 mph - N/A   Mostly Cloudy
3:50 AM 15.8 °F 6.1 °F 5.0 °F 62% 29.27 in 6.2 mi East 6.9 mph - N/A   Partly Cloudy
4:20 AM 15.8 °F 3.4 °F 3.2 °F 58% 29.27 in 6.2 mi East 10.4 mph - N/A   Partly Cloudy
4:50 AM 19.4 °F 7.2 °F 3.2 °F 49% 29.24 in 6.2 mi ENE 11.5 mph - N/A   Partly Cloudy
5:20 AM 19.4 °F 5.5 °F 1.4 °F 46% 29.24 in 6.2 mi ENE 15.0 mph - N/A   Partly Cloudy
5:50 AM 19.4 °F 6.6 °F -0.4 °F 42% 29.24 in 6.2 mi ENE 12.7 mph - N/A   Mostly Cloudy
6:00 AM 20 °F - 2 °F 31% 29.25 in 31 mi NE 15.0 mph - -   Mostly Cloudy
6:20 AM 19.4 °F 6.6 °F -0.4 °F 42% 29.21 in 6.2 mi ENE 12.7 mph - N/A   Mostly Cloudy
6:50 AM 19.4 °F 6.6 °F -0.4 °F 42% 29.21 in 6.2 mi ENE 12.7 mph - N/A   Mostly Cloudy
7:20 AM 21.2 °F 9.5 °F -0.4 °F 39% 29.21 in 6.2 mi East 11.5 mph - N/A   Mostly Cloudy
7:50 AM 17.6 °F 4.3 °F 1.4 °F 49% 29.21 in 6.2 mi East 12.7 mph - N/A   Partly Cloudy
8:20 AM 19.4 °F 5.5 °F -0.4 °F 42% 29.18 in 6.2 mi East 15.0 mph - N/A   Partly Cloudy
8:50 AM 19.4 °F 6.0 °F 1.4 °F 46% 29.18 in 6.2 mi ENE 13.8 mph - N/A   Mostly Cloudy
9:00 AM 20 °F - 6 °F 39% 29.17 in 31 mi NE 19.6 mph - -   Scattered Clouds
9:20 AM 19.4 °F 5.5 °F 1.4 °F 46% 29.18 in 6.2 mi ENE 15.0 mph - N/A   Partly Cloudy
9:50 AM 19.4 °F 4.1 °F 1.4 °F 46% 29.18 in 6.2 mi NE 18.4 mph - N/A   Partly Cloudy
10:20 AM 21.2 °F 7.3 °F -0.4 °F 39% 29.15 in 6.2 mi ENE 16.1 mph - N/A   Partly Cloudy
10:50 AM 19.4 °F 4.5 °F 5.0 °F 54% 29.15 in 6.2 mi NE 17.3 mph - N/A   Mostly Cloudy
11:20 AM 19.4 °F 5.5 °F 1.4 °F 46% 29.15 in 6.2 mi ENE 15.0 mph - N/A   Unknown
11:50 AM 19.4 °F 4.1 °F 5.0 °F 54% 29.12 in 6.2 mi NE 18.4 mph - N/A   Unknown
12:00 PM 21 °F - 7 °F 40% 29.13 in 31 mi NE 16.1 mph - -   Mostly Cloudy
12:20 PM 19.4 °F 5.5 °F 3.2 °F 49% 29.12 in 6.2 mi ENE 15.0 mph - N/A   Partly Cloudy
12:50 PM 19.4 °F 4.5 °F 3.2 °F 49% 29.12 in 6.2 mi NE 17.3 mph - N/A   Scattered Clouds
1:20 PM 19.4 °F 4.1 °F 6.8 °F 58% 29.12 in 6.2 mi ENE 18.4 mph - N/A   Partly Cloudy
1:50 PM 17.6 °F 4.3 °F 5.0 °F 58% 29.09 in 6.2 mi NE 12.7 mph - N/A   Partly Cloudy
2:20 PM 17.6 °F 2.7 °F 6.8 °F 63% 29.12 in 6.2 mi ENE 16.1 mph - N/A   Unknown
2:50 PM 17.6 °F 4.3 °F 3.2 °F 53% 29.09 in 6.2 mi ENE 12.7 mph - N/A   Unknown
3:00 PM 20 °F - 7 °F 43% 29.12 in 31 mi NE 15.0 mph - -  
3:20 PM 17.6 °F 3.7 °F 3.2 °F 53% 29.09 in 6.2 mi ENE 13.8 mph - N/A   Unknown
3:50 PM 17.6 °F 5.0 °F 1.4 °F 49% 29.09 in 6.2 mi ENE 11.5 mph - N/A   Unknown
4:20 PM 17.6 °F 2.2 °F 8.6 °F 68% 29.09 in 6.2 mi NE 17.3 mph - N/A   Unknown
4:50 PM 19.4 °F 7.9 °F 3.2 °F 49% 29.09 in 6.2 mi ENE 10.4 mph - N/A   Unknown
5:20 PM 17.6 °F 2.7 °F 6.8 °F 63% 29.09 in 6.2 mi NE 16.1 mph - N/A   Partly Cloudy
5:50 PM 19.4 °F 5.5 °F 6.8 °F 58% 29.09 in 6.2 mi NE 15.0 mph - N/A   Scattered Clouds
6:00 PM 19 °F - 13 °F 68% 29.11 in 31 mi North 13.8 mph - -   Partly Cloudy
6:20 PM 17.6 °F 3.7 °F 6.8 °F 63% 29.09 in 6.2 mi NE 13.8 mph - N/A   Unknown
6:50 PM 17.6 °F 4.3 °F 6.8 °F 63% 29.09 in 6.2 mi NE 12.7 mph - N/A   Unknown
7:20 PM 17.6 °F 5.0 °F 6.8 °F 63% 29.09 in 6.2 mi NE 11.5 mph - N/A   Unknown
7:50 PM 17.6 °F 5.7 °F 6.8 °F 63% 29.09 in 6.2 mi ENE 10.4 mph - N/A   Unknown
8:20 PM 19.4 °F 7.2 °F 6.8 °F 58% 29.09 in 6.2 mi ENE 11.5 mph - N/A   Unknown
8:50 PM 17.6 °F 4.3 °F 6.8 °F 63% 29.09 in 6.2 mi ENE 12.7 mph - N/A   Unknown
9:00 PM 20 °F - 13 °F 64% 29.08 in 31 mi NNE 11.5 mph - -   Mostly Cloudy
9:20 PM 17.6 °F 5.0 °F 5.0 °F 58% 29.09 in 6.2 mi ENE 11.5 mph - N/A   Unknown
9:50 PM 19.4 °F 9.5 °F 1.4 °F 46% 29.09 in 6.2 mi ENE 8.1 mph - N/A   Unknown
10:20 PM 17.6 °F 8.2 °F 1.4 °F 49% 29.09 in 6.2 mi ENE 6.9 mph - N/A   Unknown
10:50 PM 17.6 °F 5.7 °F 3.2 °F 53% 29.09 in 6.2 mi ENE 10.4 mph - N/A   Unknown
11:20 PM 17.6 °F 5.0 °F 8.6 °F 68% 29.09 in 6.2 mi NE 11.5 mph - N/A   Unknown
11:50 PM 17.6 °F 4.3 °F 5.0 °F 58% 29.09 in 6.2 mi ENE 12.7 mph - N/A   Unknown